Wind_Speed
1 1 1 2 2 2 2 2 2 3 4 4 5 5 6 6 6 7 7 7 7 7 8 8 9 10 10 10 11 11 13 16 14 9 10 13 11 8 10 6 4 8 11 8 8 8 7 8 7 7 6 4 3 2 3 3 3 3 3 5 6 5 6 4 4 6 7 9 9 5 4 7 9 5 2 1 7 10 12 14 15 12 13 17 15 5 5 6
2 2 2 3 3 4 4 4 4 4 5 5 5 6 6 6 7 7 8 8 8 9 9 9 10 11 11 11 12 12 15 18 15 12 14 16 12 7 7 7 5 7 11 10 10 9 7 7 8 8 6 4 3 3 3 3 4 5 5 6 6 7 8 6 7 9 10 10 11 11 11 9 9 9 4 6 11 10 13 15 14 15 14 17 17 13 12 10
2 2 3 3 4 4 5 5 5 6 6 6 6 7 7 7 7 8 9 9 10 10 10 10 11 11 12 12 12 12 14 16 13 8 5 5 5 5 5 5 5 7 11 9 9 9 6 4 6 8 6 5 3 3 4 4 4 6 5 7 7 8 10 8 8 10 11 12 13 13 12 12 10 9 7 9 13 12 14 14 14 15 14 12 13 13 13 13
3 4 4 4 5 5 5 5 5 5 6 6 7 7 8 8 9 10 10 11 11 12 12 12 12 12 12 11 11 11 12 12 7 2 6 6 5 2 2 3 4 8 10 6 7 7 5 4 5 7 6 6 4 4 5 5 3 4 5 8 9 9 10 9 10 11 10 9 11 14 13 14 11 8 9 10 11 11 13 14 14 15 15 13 11 11 8 12
4 4 5 5 5 5 5 4 4 4 5 5 6 7 8 9 10 10 11 12 12 12 13 12 12 12 11 10 9 8 8 6 1 5 7 4 1 1 1 2 3 9 10 6 6 6 6 6 6 6 5 7 6 5 7 8 5 5 8 12 13 13 12 11 11 9 6 7 10 14 14 13 10 8 10 13 12 10 12 13 15 17 17 16 14 14 9 9
5 4 5 5 5 5 4 4 4 4 5 5 6 7 8 9 10 11 12 13 13 13 13 13 13 12 10 9 6 2 4 4 1 3 5 2 4 4 2 2 4 11 10 7 7 6 7 7 6 7 6 7 9 8 8 6 6 6 10 12 13 13 13 12 11 3 1 8 12 13 13 12 12 13 13 15 15 15 16 17 18 19 20 20 17 15 12 10
4 4 4 5 4 4 4 4 3 4 5 5 6 7 8 9 11 12 13 13 14 14 14 13 13 12 10 6 2 2 6 8 5 4 7 8 9 6 4 4 7 12 11 9 9 8 7 7 8 7 7 8 9 10 9 5 7 8 12 13 14 14 13 12 11 5 4 11 13 12 13 14 16 16 15 16 17 17 19 18 20 21 21 21 18 15 14 14
3 4 4 4 4 3 3 3 4 4 5 6 7 8 9 10 11 12 13 14 14 14 14 13 12 10 7 1 2 4 7 10 10 9 11 12 10 8 6 6 10 13 11 11 10 8 7 8 9 7 8 9 9 9 6 6 9 12 14 14 13 13 12 11 11 11 10 11 11 12 15 18 18 15 18 22 19 19 20 19 20 20 20 18 16 15 14 14
3 4 4 4 3 3 3 3 3 4 5 6 7 7 9 10 11 13 14 15 15 15 14 13 11 8 4 2 4 7 6 9 11 13 13 11 9 8 7 7 12 13 11 12 10 8 6 6 9 6 8 10 9 9 6 6 8 8 10 12 12 12 12 12 13 14 12 10 10 12 16 19 16 14 19 21 16 15 17 18 18 17 17 16 14 14 13 14
3 3 3 3 2 2 2 3 3 4 5 6 7 8 9 10 12 13 14 15 15 15 14 13 10 7 5 4 6 7 3 4 8 9 9 7 6 7 9 9 12 13 11 10 9 10 8 6 5 2 6 10 8 10 9 9 6 7 9 11 12 14 15 15 17 16 13 13 14 14 15 18 13 10 14 14 8 8 10 12 14 14 15 14 13 13 12 13
3 2 2 1 1 2 2 3 4 5 6 7 8 9 10 12 13 14 14 15 15 15 14 12 9 6 5 5 8 6 2 3 5 6 7 4 3 7 10 10 10 12 11 8 9 11 9 7 3 1 3 4 6 9 9 7 7 9 10 11 14 17 16 17 18 17 13 11 11 12 14 16 12 10 15 17 12 11 12 12 13 13 15 15 15 14 11 11
3 2 1 1 2 2 3 4 5 7 8 8 9 11 12 13 14 14 14 14 14 14 13 10 7 6 5 7 9 7 4 5 5 6 5 3 4 8 11 11 10 10 9 8 9 8 7 4 3 8 5 3 6 8 4 3 6 7 8 11 15 16 15 18 18 15 14 7 2 4 10 12 11 13 19 20 16 14 13 12 13 13 14 14 14 13 11 11
2 2 2 2 3 3 3 5 6 8 8 9 11 12 13 14 13 13 12 12 12 13 12 8 5 7 5 6 6 9 10 9 9 8 7 5 4 6 9 10 10 11 11 7 4 2 5 5 6 11 7 6 8 5 3 3 4 8 10 9 11 12 12 15 11 7 9 5 7 3 7 7 10 13 16 14 10 10 10 11 14 14 14 13 13 12 13 14
2 2 1 2 3 3 4 5 7 8 9 10 11 13 13 13 11 10 10 10 10 10 9 5 6 7 4 5 2 6 8 8 7 6 7 5 3 4 6 8 8 11 11 6 3 3 3 4 6 9 6 7 8 6 7 8 5 8 11 7 7 8 8 9 4 5 4 3 8 6 7 7 10 12 13 9 5 7 10 13 16 17 15 14 13 14 15 16
2 1 1 2 2 3 4 6 8 9 10 11 12 13 13 11 8 8 7 7 7 5 2 2 7 6 4 6 2 2 3 4 4 5 6 5 4 3 4 5 5 6 7 4 3 3 2 5 6 7 5 4 6 9 9 8 6 7 9 7 7 7 8 8 5 7 6 2 9 9 6 8 9 10 10 9 8 10 12 15 17 18 18 16 15 15 15 16
2 1 1 2 3 3 5 6 9 10 11 11 12 14 12 8 6 5 4 3 2 1 3 2 7 4 6 4 3 2 2 3 6 6 6 6 6 3 5 5 3 3 3 2 3 3 4 7 4 3 5 3 5 8 8 7 7 7 8 8 8 9 9 8 3 5 6 2 9 12 8 9 9 11 13 14 16 17 16 17 19 20 19 17 14 13 14 15
2 2 2 2 3 4 6 7 9 11 12 12 13 14 9 5 4 2 2 3 2 3 2 1 3 4 5 3 2 2 3 3 5 4 5 8 7 5 7 5 4 5 4 4 4 5 6 6 3 1 5 6 7 6 6 7 6 6 8 9 10 11 10 8 6 6 3 3 8 12 11 12 13 13 15 15 17 18 17 19 20 19 17 16 14 14 14 13
3 3 3 3 4 5 7 8 10 12 13 13 14 13 7 5 4 2 1 3 2 2 2 1 2 4 3 3 3 0 5 3 3 3 3 7 8 7 7 4 5 7 7 5 5 6 5 4 3 4 6 7 7 6 6 8 8 10 10 9 10 11 12 13 11 10 8 11 15 14 14 16 16 14 14 15 16 17 18 19 19 16 17 17 15 14 13 12
4 4 4 4 5 7 8 9 10 13 14 13 14 12 6 5 5 4 3 3 2 3 2 1 4 5 6 5 2 2 4 2 3 2 4 6 7 7 5 4 7 7 6 4 5 7 5 4 4 5 6 7 9 9 11 13 14 17 14 11 12 13 13 15 15 13 15 17 16 15 17 16 16 15 14 17 18 18 19 19 16 15 15 16 14 12 10 9
6 6 5 5 6 8 10 10 10 13 13 13 14 10 5 3 4 2 3 5 7 8 9 8 8 11 14 10 2 2 1 3 3 2 5 8 8 8 6 5 6 5 6 4 5 5 3 6 6 6 8 11 12 13 15 16 16 17 15 12 14 15 13 14 15 14 13 14 12 12 16 17 16 15 16 19 19 18 18 17 16 16 16 13 10 7 5 5
6 6 5 6 7 9 11 12 11 12 11 11 12 8 2 4 4 2 2 7 11 12 14 14 14 15 13 5 2 2 2 2 4 4 7 9 8 7 6 7 5 4 6 4 3 3 2 7 8 9 12 14 15 14 15 15 15 15 13 12 13 12 13 14 16 15 11 10 10 12 16 17 17 17 19 20 18 15 14 14 16 17 15 9 4 4 4 5
6 6 7 9 9 9 11 13 12 13 10 7 7 4 2 3 3 1 3 7 10 13 15 16 15 13 12 8 3 2 3 7 6 6 10 10 7 7 5 6 7 4 5 6 3 3 5 9 11 14 14 14 15 13 12 14 14 12 10 11 10 9 12 14 12 9 4 3 8 14 15 15 16 19 20 15 11 10 11 14 16 14 11 7 4 4 5 5
7 8 10 11 10 11 12 13 14 13 8 5 4 2 1 1 2 2 3 5 8 11 10 10 10 9 10 9 4 3 7 12 11 7 12 11 7 6 6 7 8 7 6 8 8 7 6 7 8 12 13 12 14 11 11 12 11 10 9 9 9 10 11 10 7 6 5 7 11 14 13 12 14 15 13 6 3 6 11 15 13 8 5 4 4 4 5 6
11 10 11 12 11 12 12 13 14 9 5 4 2 1 1 2 2 2 4 4 7 7 2 2 4 5 4 2 1 5 8 7 6 4 10 10 6 4 7 8 8 9 8 11 12 11 12 9 2 5 9 10 12 11 11 11 8 9 10 9 11 13 13 12 12 12 12 11 9 10 11 8 5 4 5 2 2 8 13 12 4 3 4 3 5 6 8 10
14 14 13 13 12 11 11 13 10 5 5 3 1 2 2 1 2 3 3 4 5 3 1 2 2 1 0 0 1 3 5 3 1 2 4 5 4 3 3 4 5 8 9 12 12 10 13 9 2 4 7 8 9 10 12 10 7 9 9 10 13 14 14 15 14 12 10 6 3 7 9 5 1 1 5 6 8 14 14 6 8 11 9 9 9 10 11 11
17 16 14 14 13 10 8 7 4 4 5 2 2 4 3 2 1 2 2 4 5 2 2 3 3 2 2 2 2 1 3 3 1 2 2 3 3 1 2 2 3 5 4 5 7 5 7 3 3 4 7 7 8 10 12 10 8 7 4 5 8 11 12 12 11 8 6 6 3 5 6 6 4 7 10 8 11 16 7 9 14 12 11 11 11 12 12 13
16 14 13 12 11 8 4 3 3 4 3 1 2 4 4 3 0 2 2 4 5 2 3 1 1 1 1 2 2 2 1 3 3 2 2 2 1 1 3 3 3 2 1 1 3 2 4 4 2 3 6 6 7 8 8 7 8 5 2 5 5 7 9 8 7 6 5 9 9 5 6 7 7 6 7 8 14 14 2 14 13 12 13 13 13 14 14 14
13 12 10 9 8 8 6 3 3 3 2 2 2 3 5 4 2 2 3 5 3 2 2 1 2 1 1 2 3 2 1 1 2 2 2 2 2 2 5 6 4 3 5 4 5 1 3 5 5 6 6 6 8 7 3 6 8 2 3 2 3 4 6 5 5 7 7 8 8 5 7 6 8 3 3 7 11 7 8 13 12 13 13 12 12 14 14 14
9 7 5 5 6 8 9 6 3 3 3 2 2 4 4 2 3 2 3 4 1 2 1 1 2 2 3 3 4 3 1 2 1 2 3 3 3 2 3 4 6 5 6 7 8 4 0 1 2 5 6 6 7 4 0 4 5 1 3 1 2 3 5 5 6 6 6 8 9 7 9 6 7 2 3 3 3 2 8 10 11 13 13 11 11 13 14 13
8 6 5 5 6 7 9 7 7 7 6 4 4 5 3 3 3 4 6 3 1 1 2 2 2 3 4 4 5 5 4 2 2 3 4 2 3 3 2 1 3 5 6 7 10 11 4 3 2 4 8 6 1 3 3 1 1 2 1 4 5 6 6 5 5 4 5 8 8 7 12 8 5 1 1 2 2 3 5 8 10 12 11 11 11 11 12 12
7 6 6 7 7 7 5 4 6 8 7 5 5 4 5 4 3 6 6 1 2 1 3 3 2 3 6 5 3 5 5 4 4 5 4 2 4 5 3 2 2 3 5 6 8 11 7 4 2 4 6 5 1 2 1 3 2 0 3 4 5 6 4 4 4 3 5 7 2 1 6 8 7 3 1 3 5 4 5 6 10 11 10 10 10 11 11 11
7 6 8 9 8 7 5 2 2 4 5 3 3 4 5 4 6 8 5 0 1 3 3 2 3 4 6 4 3 4 3 4 7 7 5 4 4 5 5 5 3 3 6 5 4 5 6 8 9 5 3 6 6 3 2 3 2 3 3 3 5 5 4 5 5 4 6 5 2 4 0 6 9 7 8 8 1 8 9 8 11 12 10 10 10 10 10 9
7 7 8 9 9 9 8 5 1 2 6 4 2 3 3 6 7 4 5 5 1 2 1 1 2 4 4 4 5 5 2 3 7 7 5 4 4 6 9 9 7 6 7 6 6 5 4 4 9 6 2 7 9 5 4 3 5 7 6 5 5 5 5 7 6 6 7 4 3 3 1 5 7 7 10 9 2 12 13 12 13 13 11 11 11 10 10 9
8 8 8 9 11 11 11 9 3 2 5 4 1 1 5 10 6 1 4 8 3 1 1 2 2 4 5 5 4 4 4 5 6 6 5 5 5 7 9 10 10 7 6 7 7 7 8 6 7 8 2 7 13 10 6 1 3 8 6 5 6 5 6 7 6 7 9 7 2 3 2 4 4 1 4 7 12 13 12 13 12 12 12 11 10 10 9 9
9 9 10 11 13 14 13 11 8 5 5 3 1 3 8 10 6 4 6 7 6 4 2 2 2 5 6 6 4 3 5 5 4 4 5 7 7 6 7 8 9 8 5 6 5 4 10 9 3 4 1 6 9 7 3 2 2 4 2 3 5 4 4 7 7 8 9 8 6 5 4 5 4 2 2 10 15 13 12 13 12 12 11 10 9 9 8 8
8 9 10 12 15 16 15 13 11 8 6 4 3 7 10 8 6 6 4 4 6 6 4 3 5 8 8 7 7 7 6 4 3 3 5 8 8 8 7 4 3 7 6 5 5 5 8 6 3 4 1 3 2 1 1 1 2 2 2 3 2 1 2 6 8 8 7 9 8 6 7 8 7 9 7 8 15 13 11 11 11 11 11 10 8 7 6 6
6 6 7 10 15 17 16 15 13 10 6 5 8 9 8 7 10 9 3 0 2 3 5 6 5 6 8 7 6 6 7 5 5 5 4 5 5 6 8 3 1 4 5 3 4 4 5 6 2 3 2 2 3 3 1 2 1 2 3 1 1 0 1 3 6 7 8 10 7 7 12 11 7 5 1 11 14 11 9 10 10 10 9 8 7 5 5 5
2 3 5 10 16 15 16 17 16 11 5 6 12 13 8 7 10 8 3 2 2 4 7 8 5 4 6 8 5 5 7 5 5 6 4 4 3 2 4 2 2 1 2 2 3 2 3 7 5 1 0 2 3 2 4 4 3 3 2 2 1 4 4 5 7 6 9 10 8 9 12 10 9 8 1 7 11 10 9 8 8 8 8 7 6 5 5 4
0 1 3 7 13 15 17 19 15 8 6 8 12 11 8 8 7 5 3 3 4 5 7 9 7 6 7 8 5 3 7 6 5 5 5 5 5 2 4 1 1 3 1 1 3 3 2 7 6 2 3 2 3 3 5 5 4 2 3 1 2 3 4 6 5 3 7 10 9 8 9 8 6 5 2 6 9 9 8 7 7 7 6 5 4 4 3 3
2 2 1 2 8 14 18 18 11 7 8 10 10 8 4 4 5 3 1 2 4 4 6 8 9 9 9 9 9 6 6 8 8 7 6 7 8 2 5 3 1 3 2 0 3 3 2 6 8 2 2 1 4 5 5 7 6 4 4 5 5 4 2 4 4 3 5 8 8 8 8 7 3 4 6 9 9 7 7 8 6 5 6 5 4 3 2 2
3 3 1 4 7 15 18 13 8 7 8 8 9 9 5 3 4 2 1 1 5 4 4 6 9 10 10 10 11 8 7 8 9 8 8 8 9 4 4 3 2 3 2 3 3 2 2 5 7 7 4 6 8 5 2 4 5 2 2 4 5 4 3 5 6 5 4 6 7 8 9 5 1 4 6 8 7 6 7 6 6 5 5 5 4 3 2 2
4 3 2 5 11 18 16 9 7 6 8 9 9 9 6 3 5 6 4 3 5 5 5 6 9 11 10 10 10 9 8 7 8 9 7 7 10 7 1 3 2 3 3 5 5 1 1 3 7 9 9 10 15 13 4 0 4 6 4 5 6 5 6 7 7 5 4 7 7 8 10 5 2 4 5 6 5 5 5 4 5 4 3 4 4 3 2 2
4 2 2 4 14 20 13 8 9 8 8 9 8 9 7 4 6 8 7 7 6 7 7 7 9 10 10 10 10 11 10 7 8 10 10 10 9 2 4 3 2 2 3 6 6 1 1 3 7 8 8 10 14 14 5 1 5 8 6 7 7 6 7 7 6 5 4 7 9 9 9 4 2 3 3 5 5 5 4 3 4 4 3 2 1 1 2 2
2 2 1 3 14 18 11 8 10 11 11 10 9 12 11 9 9 9 9 9 8 8 9 9 10 10 10 10 9 10 10 7 7 8 9 10 4 4 6 5 3 1 2 3 2 1 1 4 4 5 6 7 9 9 4 2 1 3 3 5 6 7 8 6 4 5 4 5 7 9 9 4 2 3 3 4 6 5 4 4 3 4 4 3 2 1 2 2
1 2 1 2 9 11 7 6 6 9 12 13 13 14 13 10 10 11 11 11 10 9 9 8 6 7 8 7 4 5 7 7 6 4 3 5 1 4 4 6 4 1 2 5 3 2 3 3 2 4 6 6 7 7 3 1 1 2 3 6 7 9 9 7 6 7 6 4 5 6 7 5 3 6 7 6 7 6 4 4 4 4 4 3 3 2 1 1
1 3 3 2 4 5 4 4 5 7 10 12 11 13 15 13 9 8 8 11 12 11 11 8 5 5 8 9 6 7 10 10 8 5 5 5 2 3 3 4 4 4 4 5 4 1 2 3 5 8 9 8 9 9 7 6 6 8 8 9 10 10 9 7 7 8 7 8 8 8 10 12 12 12 12 8 5 6 5 5 5 4 4 4 2 2 2 1
2 3 5 5 3 5 5 5 6 7 9 10 9 9 14 16 12 8 8 8 9 10 10 10 9 8 9 10 10 11 12 12 10 9 9 8 3 2 2 2 3 4 3 2 1 1 2 5 8 10 11 13 14 15 14 13 13 13 13 14 15 14 11 9 10 11 10 10 9 9 13 15 13 14 17 13 4 5 5 4 3 3 3 3 3 3 4 5
2 1 1 1 2 6 7 6 8 10 11 11 9 9 12 14 14 10 8 7 5 6 8 8 11 14 13 12 10 8 10 10 9 9 8 5 2 2 2 2 3 3 3 3 3 2 3 7 10 10 12 15 16 17 16 14 13 13 15 17 18 17 16 13 13 15 14 12 12 14 18 19 17 18 17 8 1 3 3 2 2 2 2 4 4 5 6 7
2 1 1 2 2 4 3 2 6 11 13 11 8 11 14 14 14 9 4 5 6 6 9 10 9 9 9 10 8 7 8 6 4 4 2 1 1 1 2 2 2 3 4 4 4 3 4 6 7 7 9 12 15 16 14 12 14 15 16 18 19 20 20 17 16 17 18 18 19 21 24 24 19 15 8 2 5 3 2 2 1 2 2 3 3 5 6 7
1 2 1 0 1 1 1 2 7 9 10 9 8 10 11 13 16 9 2 3 7 6 8 10 4 2 2 1 3 5 4 0 0 1 1 1 1 1 2 4 2 3 3 2 2 3 5 4 0 1 6 10 13 13 11 10 12 13 15 18 20 21 19 17 16 16 17 19 21 22 24 21 10 1 3 4 3 2 1 1 2 2 1 2 3 5 6 6
1 3 2 1 3 3 2 3 7 8 8 9 9 9 11 13 14 9 1 1 4 4 4 4 4 4 3 2 2 5 3 3 2 3 1 2 3 2 2 2 1 2 2 2 1 2 5 4 1 1 7 10 8 5 4 5 8 11 15 19 22 19 16 15 15 14 15 17 19 19 17 11 1 5 4 2 3 2 3 3 3 3 3 4 5 6 7 7
2 1 1 2 2 4 5 3 6 8 7 8 10 10 9 6 3 3 3 1 1 2 3 2 4 3 4 5 4 2 3 5 3 2 1 1 2 2 3 2 2 2 3 2 1 2 3 3 2 3 6 7 4 1 3 4 7 10 11 13 16 15 15 16 16 17 20 18 15 12 7 1 2 3 2 2 3 4 5 5 4 4 4 5 6 7 8 8
Wind_Direction
332 336 337 341 332 329 329 328 329 333 330 327 325 321 322 322 323 324 321 318 318 320 322 324 321 318 319 318 324 327 321 315 305 276 243 268 283 275 273 271 266 222 204 179 167 178 178 195 194 187 203 191 214 205 165 206 216 223 235 248 257 261 277 291 279 300 304 300 304 293 269 274 288 277 186 261 251 254 267 267 267 252 236 245 253 240 198 222
299 299 313 314 314 321 326 334 339 340 336 333 327 321 321 321 322 320 316 315 315 317 321 325 323 322 321 322 329 330 323 313 294 269 261 271 269 262 273 266 262 212 193 184 185 197 199 207 192 190 215 208 189 172 186 188 195 227 250 261 257 262 283 297 288 296 298 293 299 299 294 285 284 288 287 275 272 272 273 269 270 265 252 247 245 232 217 214
299 299 303 308 317 323 328 334 336 338 337 333 330 325 324 324 323 319 316 316 316 317 320 323 324 325 325 329 335 335 329 311 289 280 271 253 215 225 269 261 255 203 188 196 207 216 234 244 198 199 229 235 204 181 216 182 187 236 242 259 261 267 279 280 282 288 289 293 295 294 297 293 282 282 276 268 277 278 272 271 272 273 272 267 253 241 218 204
316 312 318 324 329 333 337 337 335 340 335 330 328 325 324 324 320 317 316 315 315 316 319 322 324 325 328 335 341 343 331 300 286 64 115 124 141 195 275 259 245 191 184 206 222 220 247 254 206 218 243 250 228 202 236 200 181 243 223 250 269 281 284 275 284 288 284 291 293 293 295 290 286 282 265 262 273 270 263 265 270 276 284 287 286 286 244 202
322 323 331 333 335 340 341 340 344 339 328 324 322 321 320 317 315 313 311 310 311 312 315 318 319 322 327 336 341 346 328 296 20 107 141 134 149 247 292 276 224 185 183 202 208 204 221 223 212 227 241 255 246 219 244 219 200 261 239 250 267 275 278 276 290 293 285 292 289 287 287 290 294 279 260 258 262 260 265 276 284 286 289 291 291 299 284 215
327 336 335 331 337 342 344 347 346 328 321 319 316 316 313 311 309 306 305 304 305 306 308 310 313 317 324 337 344 343 295 284 84 153 198 243 278 284 302 278 203 184 186 199 197 196 210 213 214 229 238 255 256 247 258 222 190 257 259 256 263 268 272 280 293 297 250 278 276 279 287 294 287 275 270 262 257 258 266 276 285 285 285 289 289 289 277 243
332 338 331 330 339 346 350 345 339 326 320 315 312 311 307 306 303 301 300 298 300 300 300 303 305 310 318 340 1 212 243 265 271 238 251 267 268 277 282 247 196 184 190 203 199 199 210 217 223 243 257 257 265 260 262 241 205 245 267 269 270 273 274 280 288 278 251 265 268 278 286 281 274 278 283 273 266 268 270 271 273 277 280 284 285 280 268 255
323 325 326 330 340 350 347 339 340 329 319 317 313 310 307 304 301 299 297 295 296 293 293 294 294 301 310 318 258 257 236 251 269 271 273 271 265 265 253 216 193 187 197 209 206 214 222 230 237 250 260 260 274 270 261 253 241 244 257 268 273 274 274 278 280 272 262 259 262 269 269 266 268 280 283 276 274 271 268 268 269 273 277 280 281 277 266 258
309 321 328 329 340 344 339 343 342 328 325 322 314 312 309 304 301 300 298 297 294 291 290 287 285 285 275 220 254 272 250 242 257 270 276 271 263 247 218 199 194 191 205 218 220 230 228 244 254 255 270 280 281 274 264 251 259 263 265 277 286 285 284 283 278 270 263 258 255 255 259 264 272 282 278 272 273 271 265 265 269 273 277 279 280 277 268 261
299 318 325 325 337 336 346 352 343 339 333 326 320 317 312 307 305 302 301 299 295 293 290 285 280 263 240 222 243 264 255 223 241 264 276 269 255 219 196 198 195 197 211 220 223 229 231 259 290 337 293 286 276 270 260 248 277 311 300 298 292 287 286 280 274 270 262 260 255 247 256 270 279 279 272 272 274 278 272 269 277 284 285 285 284 280 270 263
293 308 320 326 342 354 10 4 355 353 343 336 329 323 319 314 310 307 304 301 298 296 293 287 271 243 228 228 242 260 210 193 236 259 271 265 215 190 196 204 196 204 219 221 223 231 245 268 309 347 283 288 279 270 254 254 298 306 303 302 287 281 279 272 269 267 257 259 256 243 254 270 273 253 255 267 270 272 276 277 280 283 286 288 287 283 272 261
295 310 338 3 19 20 20 9 3 355 347 340 331 328 324 318 315 311 307 305 302 298 295 288 258 214 219 242 244 248 225 215 246 260 265 249 199 194 203 209 199 208 228 237 233 233 250 272 263 244 255 312 287 280 264 291 312 294 292 291 285 281 277 270 266 261 253 244 173 223 254 260 253 238 244 257 264 267 269 274 281 280 283 287 286 284 275 265
295 314 354 18 22 20 16 9 2 354 346 337 333 331 324 321 318 312 310 306 302 298 296 287 233 186 217 263 241 229 231 236 253 267 267 250 221 212 214 216 208 210 225 249 266 254 249 251 246 249 268 276 269 304 326 280 283 281 280 275 283 285 277 274 267 249 248 206 131 196 269 272 264 258 260 270 281 277 267 274 289 288 287 287 285 283 275 270
279 293 358 17 19 11 6 4 355 351 344 336 335 330 324 322 318 315 313 305 300 296 294 266 193 172 220 268 221 206 226 240 248 254 256 238 191 203 214 218 218 217 221 241 284 290 262 233 238 254 271 259 270 324 300 263 252 276 282 266 263 274 277 281 246 169 219 166 152 211 267 279 282 282 283 301 320 288 275 282 291 288 287 286 281 278 273 269
263 270 351 359 7 355 355 355 349 348 343 337 333 330 326 322 319 323 315 307 306 297 303 183 176 174 259 259 192 159 206 215 201 214 236 205 180 203 193 196 208 215 218 226 246 252 222 191 215 248 247 234 271 289 278 267 258 266 279 268 252 259 280 284 211 187 249 212 169 207 267 281 281 289 295 307 306 287 281 285 287 284 282 282 277 273 271 270
246 253 316 336 342 338 345 345 344 345 343 338 333 329 324 317 325 331 327 334 335 117 106 141 180 201 290 264 147 132 178 189 194 216 232 194 194 198 138 146 156 167 194 194 202 191 178 192 206 271 254 230 250 260 266 273 263 249 254 264 267 270 284 289 256 250 276 186 183 213 260 285 281 289 294 297 294 289 287 286 283 281 281 279 275 272 271 273
235 259 291 312 318 326 338 342 346 347 346 343 336 331 322 317 327 338 51 45 42 107 121 216 179 218 271 236 225 247 145 160 188 202 217 191 185 165 145 146 143 146 141 134 166 171 178 196 194 267 241 239 249 257 267 265 262 262 260 267 271 273 286 292 296 303 271 212 241 241 251 269 275 283 287 287 286 285 284 281 277 278 282 281 278 275 273 276
251 268 282 301 320 331 335 344 352 351 351 348 340 332 315 300 300 266 32 13 13 134 153 145 180 234 233 191 254 336 99 119 166 158 182 176 168 164 165 164 152 157 154 150 182 182 185 195 202 237 227 228 240 237 245 257 270 283 285 289 287 285 293 293 293 303 292 278 284 279 271 275 283 287 287 284 281 278 274 273 275 280 284 282 278 275 276 280
259 264 277 303 323 330 333 347 358 355 353 352 345 333 301 277 277 246 239 284 272 229 261 195 206 263 301 292 283 83 84 117 148 130 146 149 155 164 171 170 164 176 180 176 188 181 191 202 197 233 233 229 234 229 242 259 273 284 289 291 290 287 285 287 286 292 294 289 288 287 285 288 292 292 290 283 276 270 268 272 280 284 278 274 275 279 287 296
256 261 272 298 315 323 329 341 356 356 353 356 347 323 285 284 286 237 211 244 255 269 288 279 256 272 288 296 323 79 40 192 173 116 147 149 151 163 167 167 168 200 221 208 181 166 193 224 213 224 235 243 249 249 257 267 275 283 287 282 279 279 278 281 282 284 290 289 284 286 289 293 296 294 286 279 274 271 271 274 277 273 269 272 284 302 328 331
253 261 276 295 307 319 326 332 348 353 351 358 344 313 311 357 318 332 330 273 263 263 265 265 265 267 273 298 56 55 9 225 193 131 153 158 163 184 174 171 188 213 214 191 139 127 195 233 232 233 238 248 258 265 272 277 279 279 279 278 276 276 279 280 282 286 295 291 285 289 291 294 298 292 280 277 280 280 274 268 263 264 271 287 323 3 356 332
258 271 292 299 304 317 322 325 336 343 346 356 343 330 52 0 301 313 316 285 273 260 252 255 260 261 264 268 258 285 305 265 244 155 159 166 181 208 175 175 218 223 175 164 167 199 217 234 236 236 241 251 259 267 272 273 274 273 271 275 274 278 282 283 282 282 289 292 292 299 299 295 288 279 278 283 286 280 266 257 259 269 285 305 332 341 334 344
272 280 291 296 304 311 312 315 324 333 338 338 339 7 57 273 249 202 242 278 284 263 243 242 254 261 262 258 238 214 237 251 253 195 167 174 191 212 199 200 229 236 193 193 227 240 242 253 242 237 244 254 259 261 264 267 265 259 260 269 274 279 282 287 294 290 293 291 293 301 299 287 276 264 265 271 253 258 255 252 259 280 305 318 337 353 10 32
268 272 279 288 297 302 304 310 317 319 312 319 340 3 341 244 210 200 242 272 279 270 228 185 256 270 274 276 179 213 229 240 252 194 162 186 197 182 213 224 229 238 225 223 238 246 259 276 275 224 240 251 262 263 258 261 263 260 258 260 266 277 284 293 307 311 305 292 294 310 301 288 283 243 226 219 261 277 269 264 270 59 53 48 51 46 48 50
256 260 267 275 282 291 300 308 311 294 287 302 297 298 331 282 180 182 264 276 258 256 122 143 199 221 178 122 167 233 240 219 233 94 146 217 237 161 211 233 228 242 236 235 244 250 263 272 142 195 238 246 257 261 257 257 271 271 262 261 269 283 295 301 310 317 309 291 32 7 321 301 45 291 279 294 295 282 279 316 47 57 51 51 52 50 53 55
251 255 260 267 272 277 292 303 299 291 294 270 258 293 318 320 191 173 257 278 257 211 137 176 188 171 153 152 162 252 247 197 87 72 164 262 291 252 256 176 193 266 264 241 253 258 263 260 122 214 245 245 247 255 257 255 264 272 290 312 299 300 304 307 313 316 302 290 337 7 307 287 288 279 280 278 271 269 277 61 60 54 51 55 52 47 48 49
248 253 258 263 265 258 266 302 296 297 299 270 300 308 315 323 299 172 239 273 264 158 127 184 202 190 149 113 170 217 245 137 116 144 178 266 268 245 263 193 173 243 160 214 271 237 213 202 144 207 228 233 237 251 251 232 245 263 16 2 333 312 304 310 312 295 285 293 292 252 229 268 287 282 268 243 254 264 90 80 68 58 53 53 56 57 52 48
245 250 257 260 251 232 227 268 302 300 297 336 335 315 323 319 216 206 273 283 284 110 119 139 106 131 116 117 202 242 341 143 164 132 104 270 237 195 239 239 261 240 168 204 249 157 152 196 193 188 204 226 229 244 226 196 238 269 70 359 328 308 291 292 289 282 285 295 289 222 192 258 288 285 222 229 259 271 101 90 76 70 57 48 54 62 62 55
236 236 242 234 214 214 225 242 267 278 290 321 315 316 331 288 225 251 263 268 289 111 104 102 123 152 134 149 212 220 211 208 265 76 127 203 234 254 256 258 294 272 204 219 246 268 35 140 225 202 208 240 237 249 12 208 240 59 89 295 274 246 257 258 262 280 284 274 274 236 191 241 298 292 188 211 282 352 97 93 81 77 67 56 52 54 58 55
211 201 194 188 185 202 222 238 247 254 268 294 312 321 298 230 238 259 237 243 331 80 107 136 142 143 159 188 206 200 206 200 101 132 165 178 191 217 273 280 290 272 237 236 251 259 237 98 18 239 229 254 251 73 39 339 339 67 270 285 276 249 242 242 246 266 272 263 276 241 196 218 295 316 171 106 97 49 65 91 91 80 73 64 52 48 51 50
201 196 184 177 180 187 198 234 246 243 243 266 303 296 255 234 238 249 237 268 312 173 131 165 154 151 191 219 210 186 203 201 158 170 189 166 176 201 222 209 223 250 245 239 243 247 226 180 212 224 229 247 186 139 93 68 63 238 261 289 294 269 234 233 226 199 252 265 321 72 187 223 251 229 95 79 113 87 54 89 101 91 84 72 57 51 48 46
209 205 189 184 190 190 191 214 238 222 206 216 269 252 253 257 239 235 223 114 273 193 163 183 178 189 208 230 233 191 195 200 183 195 213 189 188 209 213 213 222 249 252 249 247 235 216 212 212 197 203 214 208 214 173 129 151 208 231 244 271 279 254 252 245 226 260 263 118 90 178 247 250 251 262 265 187 89 83 94 101 99 91 76 65 59 51 46
223 216 203 200 199 195 206 212 142 157 169 165 240 244 260 258 246 240 218 218 231 112 118 82 158 192 200 213 212 191 204 205 181 197 221 211 227 234 226 228 236 259 268 277 297 286 254 217 192 184 207 200 195 205 216 206 188 191 206 211 221 257 265 267 271 263 267 263 144 132 266 263 264 266 256 255 78 84 89 92 95 95 88 75 65 59 55 50
241 233 223 217 208 207 216 216 198 162 158 154 235 236 244 247 248 334 234 224 233 38 118 101 137 188 205 228 217 179 218 229 196 204 213 205 233 243 240 234 223 234 262 270 284 274 271 275 185 178 180 169 184 216 247 301 179 194 205 213 224 247 259 269 279 273 276 287 262 177 196 258 269 47 91 92 85 87 89 86 87 85 83 77 66 57 51 48
255 249 242 234 223 219 220 218 209 187 170 169 154 205 231 243 242 240 241 235 243 256 226 149 184 223 229 238 240 212 227 232 200 203 219 227 242 245 253 248 215 207 230 250 263 250 257 269 167 132 96 157 182 223 271 358 218 195 155 219 243 258 255 264 271 272 286 295 272 222 226 256 259 265 158 109 95 90 87 84 82 76 77 75 67 59 49 44
263 260 252 241 232 223 218 215 202 186 188 187 190 223 232 238 236 231 243 248 242 246 243 218 217 237 246 241 229 208 199 214 211 218 231 235 249 251 252 273 202 198 214 240 263 262 257 262 110 104 197 155 144 336 29 290 263 131 141 218 239 352 279 268 267 265 267 270 264 247 256 264 266 270 244 139 102 90 88 84 81 79 80 79 74 71 64 58
271 264 251 240 235 224 213 206 191 182 194 199 210 231 239 236 238 238 233 120 248 242 241 243 231 235 252 257 237 189 180 209 213 219 238 223 238 242 230 242 60 217 239 265 274 278 282 277 225 181 220 118 58 339 273 244 242 175 201 231 55 33 259 253 261 263 254 256 257 247 261 271 270 277 138 115 107 99 95 89 89 90 89 88 86 83 77 70
299 271 260 245 236 223 207 198 184 175 188 206 223 236 245 240 238 235 198 141 235 226 225 240 246 244 255 261 255 164 171 205 195 201 233 228 223 186 183 214 77 137 278 282 254 289 315 283 267 153 31 115 120 266 250 206 205 247 289 10 313 260 254 239 247 255 251 256 256 244 255 265 259 268 267 120 118 111 102 91 90 88 84 84 83 77 70 63
124 240 261 238 224 209 195 187 177 174 198 208 225 236 240 241 234 215 183 175 207 220 230 241 241 244 250 252 259 184 179 212 223 221 228 230 235 156 106 11 119 123 25 216 251 302 319 270 271 105 92 117 150 210 240 217 193 238 284 265 230 261 270 259 260 263 252 258 263 253 251 250 260 297 11 102 104 106 107 96 86 81 81 82 82 80 73 66
203 230 215 162 189 184 175 174 176 196 209 210 225 229 222 242 234 207 202 216 214 215 234 241 235 241 250 251 257 249 223 234 244 246 242 248 260 215 91 31 26 97 47 236 258 296 256 252 267 258 126 205 225 223 250 263 251 228 233 232 227 227 250 273 267 240 245 260 266 264 256 248 284 19 73 95 92 94 99 98 101 99 98 99 96 99 100 98
208 237 182 119 156 161 156 164 190 208 215 223 234 233 229 249 233 187 104 242 246 245 252 255 247 249 256 256 255 255 251 250 248 251 251 250 259 255 97 60 16 47 0 276 262 281 262 256 268 272 260 250 261 269 308 305 297 297 249 253 261 258 261 274 259 229 224 248 252 257 260 256 14 46 82 91 85 81 80 86 97 95 93 95 87 79 77 74
212 222 127 117 156 159 157 178 203 204 222 227 230 235 241 259 239 225 206 209 234 239 243 252 252 252 255 256 258 261 259 256 251 250 247 239 248 259 61 71 14 15 339 296 292 341 357 277 266 270 265 262 274 283 293 271 283 289 277 265 276 273 257 260 264 262 256 250 246 254 260 256 92 84 94 95 92 89 83 92 107 101 86 79 66 48 35 15
216 204 77 117 169 172 172 197 206 209 225 228 234 240 237 238 242 238 234 232 234 235 235 236 239 243 247 249 253 255 253 250 247 248 249 249 249 286 33 23 3 356 317 290 284 346 75 261 259 262 265 272 276 274 268 146 252 262 256 249 254 263 268 271 277 291 277 258 258 261 261 258 84 79 92 108 115 115 115 122 126 130 118 99 85 12 332 320
222 197 58 159 184 189 196 204 206 214 222 225 235 237 235 237 239 237 234 232 230 235 239 241 243 243 246 253 255 253 254 251 245 248 255 257 257 64 40 4 359 329 325 320 303 344 309 264 274 280 274 278 273 259 241 121 214 262 276 281 284 291 297 301 291 279 262 248 257 264 269 278 107 141 182 154 145 149 148 137 138 150 151 157 171 198 268 281
190 190 145 186 200 210 223 228 225 223 222 224 230 234 237 238 233 232 237 239 235 238 242 243 248 250 247 250 255 250 250 249 249 263 265 249 235 70 35 6 10 25 49 46 39 346 280 265 290 282 269 267 267 263 263 35 4 316 281 276 278 278 283 290 289 275 268 273 277 269 273 280 238 217 221 194 167 168 170 161 161 166 163 164 174 192 232 270
209 204 176 172 220 242 253 265 260 240 224 222 228 235 236 236 230 213 218 239 241 236 241 245 245 249 242 237 240 246 244 240 238 246 252 243 220 78 52 31 48 73 67 50 41 358 269 257 250 251 256 262 267 277 296 303 291 287 284 278 274 273 272 273 268 265 273 287 280 263 264 273 272 267 269 263 201 169 176 177 170 169 171 171 186 212 231 265
252 222 179 170 204 235 240 241 238 236 230 223 225 232 233 237 238 209 191 224 241 235 239 246 240 238 238 235 242 252 252 247 239 238 250 254 237 120 102 94 80 79 86 99 116 162 248 262 254 251 255 260 264 271 280 282 278 277 280 279 278 276 271 260 256 263 276 282 273 267 271 275 278 281 288 295 270 171 162 168 171 175 182 186 204 223 232 246
243 255 177 187 219 215 220 225 215 220 231 232 232 237 236 235 235 227 212 211 224 231 230 235 237 237 239 241 243 247 250 252 248 243 247 252 224 170 164 149 126 130 146 158 165 176 261 267 263 261 260 261 265 270 273 276 277 274 271 272 276 275 268 262 260 264 268 266 266 275 278 278 282 284 287 304 71 136 133 137 173 191 195 203 222 235 240 245
236 273 303 333 282 218 209 192 192 211 226 231 235 240 240 238 233 231 224 213 217 221 225 235 240 234 238 246 245 239 241 247 255 248 231 104 111 207 221 226 187 159 164 182 191 205 254 261 261 265 264 262 265 269 273 276 274 270 268 269 270 268 267 270 272 271 269 267 268 273 274 275 278 283 288 66 96 106 111 137 204 223 220 228 242 256 261 258
257 291 281 204 245 242 46 171 190 207 222 223 231 238 237 240 239 232 202 227 227 215 223 236 238 75 36 282 227 235 242 142 47 278 45 65 253 245 247 253 230 150 156 199 208 232 256 259 341 330 274 265 263 265 270 275 276 277 277 271 267 266 269 273 273 270 269 268 267 268 270 272 276 343 82 97 99 79 62 312 292 290 296 303 297 295 294 285
294 346 343 273 228 187 156 188 195 204 218 217 221 232 234 238 241 237 214 256 242 237 231 205 156 95 69 120 192 243 233 119 180 231 228 258 270 297 303 281 252 160 173 193 204 239 253 260 349 293 267 264 264 269 287 300 298 284 272 264 261 262 264 264 262 261 261 263 266 267 269 272 325 91 98 100 78 30 339 325 321 324 334 329 316 310 310 305
210 258 273 277 252 190 175 185 196 205 222 223 221 228 233 230 209 196 202 138 92 294 298 199 182 214 237 223 226 221 141 124 143 176 171 233 279 294 276 277 276 243 197 166 194 238 236 252 269 260 259 261 261 53 39 340 302 273 257 253 255 256 258 258 257 254 254 257 263 270 275 276 96 92 90 69 41 345 321 324 321 320 328 326 318 313 311 311
Height
824 823 823 823 822 822 821 821 821 820 820 820 819 819 818 818 817 817 817 816 816 815 815 814 813 813 812 811 810 810 808 806 805 804 803 800 800 800 799 800 800 800 802 803 804 804 804 805 805 806 806 806 806 805 807 806 805 809 811 814 812 805 798 792 792 791 790 790 787 784 784 789 790 785 782 784 785 784 782 777 771 770 769 767 767 767 767 769
824 823 823 822 822 821 821 821 820 820 820 819 818 818 817 817 817 816 816 815 815 814 814 814 813 812 811 811 810 809 807 805 803 802 799 797 798 799 799 799 800 800 801 803 804 803 803 803 803 804 805 805 805 805 807 805 806 809 808 810 807 800 791 785 787 787 787 789 787 783 783 785 788 785 782 786 787 783 783 776 770 769 766 763 763 764 765 766
823 823 823 822 822 821 821 820 820 819 819 818 818 817 817 816 816 815 815 815 814 814 813 813 812 812 811 811 810 810 807 804 802 799 796 796 797 798 799 799 799 800 801 803 803 803 802 801 802 804 805 805 803 804 807 805 806 805 806 810 802 792 788 784 785 786 785 786 786 786 783 784 785 783 783 787 787 784 783 776 771 770 765 761 759 759 761 764
823 823 822 822 822 821 821 820 820 819 818 818 817 817 816 816 815 815 814 814 813 813 812 812 811 811 811 810 810 810 807 805 801 797 796 797 797 798 799 799 799 800 801 803 803 803 803 802 802 802 805 806 802 803 806 804 804 801 803 806 795 788 789 786 783 784 784 785 787 787 786 786 783 781 783 786 788 785 778 771 768 767 762 759 757 756 758 761
823 823 822 822 821 821 820 820 819 819 818 817 817 816 816 815 815 814 813 813 812 812 811 811 811 810 810 810 810 809 809 810 801 795 797 797 797 798 798 799 799 800 801 803 803 803 803 802 803 804 806 806 802 803 803 797 799 801 799 797 791 789 790 785 782 783 784 787 789 789 789 785 781 782 782 784 787 782 771 765 762 760 758 758 757 756 757 760
823 822 822 822 821 821 820 820 819 818 818 817 817 816 815 815 814 813 813 812 812 811 811 811 810 810 810 810 810 809 812 811 799 796 798 796 798 798 798 799 799 800 801 802 802 803 803 802 804 806 806 805 802 802 799 793 797 802 795 789 788 787 788 784 782 785 787 790 790 788 785 782 783 783 777 778 779 772 765 762 760 758 755 755 756 756 757 758
823 822 822 821 821 820 820 820 819 818 818 817 816 816 815 814 814 813 812 812 811 811 810 810 810 810 809 810 810 809 811 806 795 796 798 796 798 797 798 799 799 800 801 802 802 802 802 802 804 804 804 804 801 798 795 793 797 802 796 789 787 785 786 785 784 786 788 790 788 785 784 783 785 782 773 772 771 765 762 760 758 756 753 754 754 755 755 755
822 822 821 821 820 820 820 819 818 818 817 817 816 815 815 814 813 812 811 811 810 810 810 809 809 809 809 810 809 809 807 800 795 796 796 796 797 796 798 798 799 800 800 801 800 800 801 802 803 801 804 802 797 796 795 797 798 798 795 789 786 785 784 784 785 785 785 787 785 785 786 782 781 780 772 767 766 762 759 757 756 754 753 753 753 753 752 752
822 821 821 821 820 820 819 819 818 818 817 816 816 815 814 813 812 811 811 810 809 809 808 808 808 808 809 809 809 810 803 795 795 795 795 795 795 796 797 797 799 800 800 800 799 800 800 802 800 799 803 799 796 797 796 801 800 792 791 789 787 787 785 785 784 783 784 783 783 785 785 779 776 778 770 760 761 758 754 755 753 753 753 752 751 750 749 749
822 821 821 820 820 820 819 819 818 817 817 816 815 814 813 812 811 810 809 808 808 807 806 807 807 807 808 807 809 808 798 792 795 794 794 794 794 796 797 797 798 799 799 799 799 799 798 800 798 797 801 799 797 797 796 799 797 790 792 792 791 790 786 784 783 780 781 779 779 783 783 776 774 779 771 756 756 754 753 755 752 752 752 750 749 747 746 746
821 821 821 820 820 820 819 819 818 817 816 815 815 814 812 811 810 809 808 807 806 805 805 805 805 806 807 806 807 802 793 792 794 793 794 794 794 795 796 797 798 799 799 798 799 798 798 798 797 799 802 799 797 796 794 794 794 792 795 795 792 789 784 781 780 777 778 777 775 778 782 777 775 778 769 755 753 753 753 754 752 753 751 748 747 744 743 742
821 821 820 820 820 819 819 818 817 817 816 815 814 812 812 810 809 808 807 806 805 804 804 804 804 805 806 805 801 795 791 792 793 792 793 793 794 795 795 797 797 799 798 798 798 798 799 799 799 802 800 798 798 796 794 793 794 795 796 798 792 786 783 777 773 772 772 775 774 778 785 780 774 770 760 751 751 751 752 753 752 751 748 746 744 742 740 738
820 820 820 820 820 819 819 818 817 816 815 814 813 812 811 809 808 807 806 805 804 803 803 803 803 804 806 802 793 790 791 792 792 792 793 793 794 795 795 796 797 798 798 798 798 798 800 799 800 801 797 799 799 796 795 794 796 796 793 795 793 789 783 770 766 768 769 774 773 780 789 779 766 760 752 748 748 749 753 753 751 749 746 744 742 740 738 735
820 820 820 819 819 819 818 817 817 816 815 814 812 811 809 808 807 806 805 804 803 803 802 802 803 804 805 797 788 789 790 791 792 792 792 793 794 795 795 796 796 797 797 798 799 799 799 800 801 800 798 799 797 795 796 795 795 794 792 791 793 796 785 765 765 771 773 775 773 781 790 778 763 756 750 747 748 751 754 753 751 747 744 742 740 738 735 731
820 819 819 819 819 818 818 817 816 815 814 813 811 810 809 807 806 805 805 803 802 802 801 802 803 803 802 793 787 789 790 790 791 791 791 793 794 795 795 796 797 797 797 798 799 799 800 800 801 801 799 796 798 800 800 796 791 791 796 795 788 789 781 764 763 768 771 774 773 780 785 773 761 755 749 748 749 751 754 752 749 745 741 740 737 734 731 727
819 819 819 818 818 818 817 816 816 815 814 812 811 809 808 807 806 805 804 803 803 802 802 803 802 803 801 792 788 789 789 790 790 790 791 792 793 794 795 797 797 798 798 799 799 799 800 800 800 800 799 797 799 801 801 800 796 790 793 795 787 784 780 770 764 761 764 771 774 777 778 771 762 756 752 750 750 751 752 750 745 741 737 735 733 730 727 724
819 819 818 818 818 817 817 816 816 815 813 812 810 808 807 807 806 805 804 803 803 802 802 802 802 803 798 789 788 788 787 789 789 790 790 791 793 793 795 796 796 798 798 799 800 799 800 800 801 801 799 799 796 797 806 810 802 790 784 785 782 779 779 777 769 761 762 769 771 770 772 770 761 756 754 751 749 749 749 746 740 737 734 731 729 727 725 724
819 819 818 818 817 817 817 816 815 814 813 811 810 808 806 806 805 805 804 803 803 802 803 802 803 805 798 788 789 788 787 789 789 790 791 791 792 793 794 794 795 797 797 799 799 799 800 799 800 801 799 799 796 799 809 807 797 791 787 785 782 778 778 779 773 764 762 765 765 765 765 762 757 754 752 749 746 746 744 739 735 734 732 728 726 724 723 723
819 818 818 818 817 817 816 816 815 814 813 811 809 807 806 805 804 804 804 804 803 802 802 800 800 800 794 787 786 787 788 789 790 790 791 791 793 793 794 793 794 795 797 799 798 797 800 801 804 807 801 797 794 793 797 792 786 787 785 787 789 786 782 777 770 763 762 764 764 765 763 758 756 754 751 746 742 741 738 734 734 732 729 725 723 722 722 724
818 818 818 817 817 816 816 815 815 814 813 811 809 807 806 806 805 802 803 802 800 797 796 795 793 792 788 785 786 788 788 789 789 790 791 791 792 793 793 793 794 796 796 797 798 796 798 803 806 804 798 791 786 783 782 780 780 783 785 788 788 786 781 773 768 761 760 765 765 763 763 759 756 753 749 742 737 736 736 735 733 728 724 722 722 723 724 726
817 818 817 817 817 816 816 815 815 814 814 812 810 808 807 809 809 807 805 800 794 793 792 790 789 789 786 786 787 788 789 788 787 789 791 790 791 793 792 793 797 797 793 792 797 798 801 806 801 793 788 783 780 779 779 780 782 785 787 788 786 784 779 769 765 760 759 767 767 762 763 760 755 750 743 737 735 735 734 733 729 723 721 721 722 726 727 727
817 817 817 817 816 816 816 815 814 814 813 813 811 810 809 811 812 811 810 804 794 789 789 787 787 787 785 786 787 788 791 791 788 789 790 790 791 791 790 792 796 794 790 793 798 801 803 802 792 784 780 779 779 779 782 785 787 789 789 789 788 782 775 768 763 760 762 771 770 763 764 762 753 745 737 733 733 732 730 727 723 721 722 723 724 727 727 727
817 816 817 817 816 816 815 814 814 813 813 814 812 811 811 812 811 811 812 808 797 786 784 786 786 786 784 785 786 788 791 790 788 787 787 789 790 789 789 791 792 791 791 794 796 799 799 789 780 777 778 780 782 781 785 788 787 788 789 791 788 780 778 776 766 761 764 767 767 766 766 758 745 737 734 731 728 727 725 721 719 720 723 725 727 728 729 730
815 815 816 816 816 816 815 815 814 813 814 813 813 812 812 812 812 812 811 806 796 786 783 785 786 786 785 786 787 788 788 786 785 785 786 787 787 787 787 787 789 791 790 790 790 793 790 778 773 777 779 782 786 786 787 789 788 785 784 788 785 777 778 777 769 767 766 764 765 767 766 753 736 734 734 729 727 726 719 716 720 723 725 728 729 731 733 733
814 815 815 815 816 815 815 815 813 813 814 813 814 813 813 813 811 812 811 804 796 788 785 786 786 787 786 786 788 787 786 785 785 786 787 787 786 787 786 784 787 789 787 786 788 790 785 776 776 782 783 785 790 790 787 789 791 786 780 779 778 777 778 778 776 778 778 775 770 772 779 763 740 738 736 730 730 725 717 719 726 729 731 733 735 735 737 737
813 813 813 814 814 814 815 813 812 814 812 812 814 812 813 813 811 813 811 805 796 785 784 786 785 786 786 786 787 786 787 787 786 787 788 788 786 786 787 784 786 789 785 784 787 787 781 777 780 786 787 789 794 793 785 787 793 791 784 778 777 779 782 783 784 787 788 782 770 774 788 777 752 745 738 732 731 722 718 725 731 735 738 739 741 742 742 742
812 812 812 813 813 814 814 812 813 813 812 813 813 813 814 812 813 813 810 810 796 778 780 786 784 785 785 785 786 787 789 788 787 788 787 789 787 786 788 785 785 789 786 788 793 786 779 783 788 789 790 792 795 790 782 783 790 790 787 784 782 783 786 787 789 791 787 781 772 771 781 780 764 748 733 730 731 723 722 732 736 739 744 745 745 747 748 750
810 810 810 811 812 813 813 812 813 812 812 813 812 814 813 812 815 811 812 818 796 772 777 782 783 785 783 785 786 785 788 786 787 789 788 789 788 787 788 784 783 785 785 792 795 783 778 786 789 789 793 792 787 781 777 781 786 786 787 786 784 786 788 787 789 788 782 783 781 772 775 781 767 743 730 731 733 729 730 735 740 743 748 751 751 750 752 754
810 809 809 810 811 811 812 813 813 813 813 813 813 813 811 813 815 809 815 819 789 768 777 781 784 785 783 787 786 784 786 785 786 788 788 789 788 787 789 786 783 785 784 787 788 781 781 787 786 785 789 785 778 778 779 781 783 786 788 787 785 788 787 786 788 785 784 789 785 771 771 778 764 740 733 737 738 736 734 737 743 747 751 756 756 755 756 758
808 808 808 809 810 811 812 812 813 813 813 813 813 813 812 814 813 814 821 812 785 775 779 780 784 785 784 787 785 783 785 784 785 787 788 788 788 788 789 787 787 787 786 787 786 780 780 787 787 783 781 776 776 785 789 787 787 789 788 786 786 784 781 784 783 782 789 788 774 761 760 770 768 747 733 736 739 738 736 739 748 752 755 759 761 762 762 764
807 807 808 809 810 810 811 812 812 812 813 814 813 813 814 810 809 818 818 799 785 784 780 780 784 783 783 784 783 783 783 783 784 786 787 787 788 789 789 789 789 790 791 790 787 781 782 788 786 779 777 775 779 787 792 793 792 791 789 789 789 782 779 784 783 786 794 783 765 758 757 765 771 752 732 729 733 736 737 741 750 756 759 762 765 767 768 769
807 807 808 809 809 810 811 811 811 812 812 813 813 812 812 813 812 811 803 790 788 786 778 780 784 781 782 783 782 782 782 781 781 782 782 783 785 785 786 785 783 789 791 783 779 780 781 781 778 776 777 778 781 785 790 793 792 792 791 793 796 790 787 790 786 785 785 773 765 765 766 768 763 746 732 726 727 736 741 743 751 758 763 766 768 770 772 774
806 807 808 808 809 810 811 811 811 812 812 813 814 810 813 821 813 799 791 788 787 782 777 779 782 781 783 783 781 780 782 780 777 779 778 779 783 780 777 775 774 783 786 779 779 780 777 773 775 779 777 774 778 781 783 784 787 790 787 789 794 793 795 796 786 781 776 768 766 768 771 771 758 740 730 728 733 742 747 750 756 761 765 770 771 773 775 778
805 806 807 807 808 809 809 811 811 812 813 814 814 816 821 822 807 794 791 785 779 778 778 780 782 783 783 782 778 777 781 779 772 776 779 780 785 782 775 772 772 778 782 782 782 781 783 779 772 774 772 769 773 771 769 771 777 780 775 778 784 781 787 792 784 780 776 767 767 773 775 766 754 740 731 734 744 748 753 758 762 764 767 771 773 775 778 780
804 805 806 806 807 808 808 811 811 812 815 814 816 823 824 814 799 795 793 782 777 778 779 780 783 786 784 781 778 776 780 779 774 778 782 780 781 779 774 771 770 775 781 786 780 775 782 777 765 770 771 769 772 767 765 771 776 777 775 779 782 773 774 781 778 775 776 774 770 771 767 749 739 734 728 738 750 752 758 763 765 770 771 773 776 779 781 783
803 803 805 804 805 806 808 810 810 813 814 814 820 822 811 800 793 790 786 780 779 779 781 784 784 786 786 780 778 779 781 782 780 781 781 778 777 775 773 770 770 773 777 782 778 773 779 774 767 774 772 770 776 773 771 775 777 781 783 781 778 772 771 779 780 772 776 784 771 759 755 742 737 733 723 734 751 757 764 767 769 774 775 778 783 784 786 787
802 802 803 801 802 804 806 808 810 813 814 816 819 810 796 790 785 782 781 782 782 780 784 789 782 780 784 778 776 781 784 784 783 784 782 779 777 773 772 773 774 774 773 777 779 775 779 777 769 770 772 776 782 778 774 775 775 780 781 776 773 775 775 779 785 780 779 781 767 755 755 748 747 743 730 737 754 761 767 771 773 777 779 784 787 788 789 789
801 802 801 798 799 801 804 807 809 811 813 815 813 800 791 787 781 779 782 783 784 783 786 789 781 776 781 781 777 780 786 785 782 785 784 780 777 772 771 775 778 779 775 778 783 777 779 783 772 768 774 777 778 778 776 774 774 775 775 772 774 780 780 775 781 787 784 780 767 757 755 750 747 742 733 741 753 760 767 771 773 777 779 783 785 787 788 787
802 802 798 794 796 799 802 805 808 810 811 811 807 796 788 784 780 780 783 783 784 785 787 786 782 780 780 781 780 780 784 785 781 783 784 780 775 770 771 775 778 781 777 778 783 778 780 789 781 771 773 776 775 777 776 773 774 777 777 774 773 777 779 774 775 782 784 781 772 764 761 752 742 737 737 745 753 759 766 770 774 779 780 782 784 786 787 787
801 800 795 792 794 797 800 805 807 808 805 800 796 790 785 784 783 782 783 783 783 785 786 784 782 783 781 779 781 779 781 783 781 782 781 777 773 772 775 778 779 781 780 779 782 781 781 788 787 775 773 777 774 770 770 768 768 774 778 778 774 775 777 777 776 775 778 782 777 774 770 753 742 745 747 753 759 761 765 769 774 779 780 783 785 786 788 789
800 797 793 792 795 796 799 806 805 802 798 794 789 786 784 784 784 785 786 785 784 782 783 783 782 782 781 780 780 778 780 782 782 783 781 778 777 776 781 786 783 783 783 781 782 785 785 788 789 783 778 776 768 761 763 766 766 771 777 778 776 778 782 788 785 773 773 780 776 776 773 756 750 756 755 758 763 764 766 769 773 777 779 783 785 787 788 788
798 795 792 793 796 796 798 802 799 796 795 790 785 784 784 783 783 785 785 786 787 784 783 785 784 782 782 782 780 780 782 784 784 784 782 781 778 777 784 789 786 784 785 785 783 786 789 791 792 787 779 773 765 758 762 766 767 772 777 777 779 783 786 791 790 778 774 776 772 774 773 760 758 763 760 762 766 767 770 772 774 778 780 782 784 786 787 786
795 792 792 795 796 795 798 798 795 793 790 783 781 782 783 784 785 785 785 786 787 785 784 784 783 782 782 781 781 782 782 785 785 782 781 779 777 781 787 787 786 785 786 786 785 788 793 793 791 788 778 770 764 760 763 768 769 771 773 773 776 781 779 782 786 785 784 778 770 774 771 759 763 769 765 767 770 771 775 774 776 781 782 783 786 786 786 786
792 792 794 795 795 796 795 791 787 787 785 782 783 783 781 782 783 784 786 786 784 783 784 782 780 780 780 779 780 781 782 785 783 779 780 779 780 788 791 788 787 788 789 791 790 793 797 793 792 795 790 782 774 767 768 773 774 777 780 778 778 780 780 783 783 786 790 780 771 779 773 759 766 775 771 771 774 775 777 778 780 783 784 785 786 785 786 786
793 793 794 795 795 795 792 784 780 781 781 783 785 783 781 781 779 781 784 784 782 782 783 782 780 781 780 782 786 786 785 787 785 782 783 783 786 793 795 794 791 790 795 799 797 797 800 796 796 801 800 795 786 775 775 782 784 785 786 783 782 781 781 784 785 788 792 783 777 786 780 764 765 771 768 769 774 776 778 781 782 783 784 785 784 785 785 784
792 790 792 797 796 795 792 787 784 781 777 781 784 781 780 780 777 779 782 783 782 781 782 781 781 784 783 784 788 788 784 784 787 788 787 786 789 796 800 798 796 797 801 804 801 801 802 800 799 801 800 797 790 781 780 786 789 789 787 784 782 781 781 785 789 792 790 786 783 781 774 767 764 760 757 759 766 772 775 778 781 782 783 784 784 784 784 784
791 784 785 793 795 794 792 790 788 784 777 778 780 777 777 779 777 779 782 783 781 780 782 781 781 784 785 783 786 786 781 781 785 788 788 787 789 798 803 800 800 803 804 804 803 802 803 802 798 797 797 793 788 784 782 784 787 788 788 787 783 782 783 787 791 788 784 788 788 774 766 769 765 759 756 756 760 769 772 774 778 780 781 783 783 784 785 784
790 782 780 785 787 786 787 787 786 787 782 778 777 775 775 777 776 777 779 780 781 781 783 783 781 781 781 781 784 786 784 784 786 786 788 790 793 798 801 801 803 805 803 803 802 801 804 803 795 793 794 789 784 784 783 784 787 787 787 788 785 783 783 785 786 783 782 788 786 772 768 770 765 759 758 761 765 770 773 775 777 778 780 781 782 783 784 783
788 786 783 784 783 780 781 782 784 788 787 784 782 778 776 776 775 775 777 780 784 783 782 783 782 781 782 782 785 789 788 789 793 791 792 797 801 801 800 801 803 803 802 802 801 801 803 799 794 795 796 792 789 787 786 789 790 788 788 787 784 781 779 780 781 779 780 781 776 771 771 767 761 760 761 767 772 773 773 776 776 776 778 779 781 782 781 781
789 788 785 786 785 783 784 784 784 788 788 788 787 782 778 779 776 775 778 783 785 783 782 784 787 790 791 789 792 795 793 796 801 800 799 803 803 801 801 800 799 802 805 803 802 803 802 799 799 802 801 795 791 789 790 792 794 794 794 789 785 782 781 782 782 780 780 778 771 770 770 762 760 766 769 771 773 773 774 775 774 775 777 778 780 780 779 780
790 790 789 788 785 784 787 785 784 788 789 787 787 782 780 780 777 777 783 787 786 785 785 788 793 797 799 798 798 798 797 800 804 803 802 804 802 800 801 800 799 803 807 806 805 805 803 802 800 803 805 797 790 795 799 798 802 805 801 792 786 785 785 782 778 776 776 773 769 768 766 762 764 771 772 771 773 775 775 774 774 776 776 778 779 779 778 778
792 792 791 790 785 780 783 785 785 787 785 781 781 781 781 783 782 782 787 790 791 790 789 790 792 794 796 798 798 797 797 800 802 802 803 803 802 801 802 802 803 805 806 808 809 806 805 808 806 807 810 801 795 804 808 808 813 806 789 780 779 778 779 775 771 769 765 763 765 766 766 769 771 772 773 774 776 777 776 775 776 777 777 778 778 777 777 776